Regional Weather Roundup
Issued by NWS

Home | Current Version | Previous Version | Text Only | Print | Product List | Glossary On
Versions: 1 2 3 4 5 6 7 8 9 10 11 12 13 14 15 16 17 18 19 20 21 22 23 24 25 26 27
000
ASUS45 KPSR 061810
RWRAZ

ARIZONA HOURLY REGIONAL WEATHER ROUNDUP
NATIONAL WEATHER SERVICE PHOENIX AZ
1100 AM MST FRI MAY 06 2016

NOTE: FAIR INDICATES FEW OR NO CLOUDS BELOW 12,000 FEET WITH NO
SIGNIFICANT WEATHER AND/OR OBSTRUCTIONS TO VISIBILITY.

AZZ001>003-036-061900-
NORTHWEST ARIZONA

CITY           SKY/WX    TMP DP  RH WIND       PRES   REMARKS
BULLHEAD CITY  MOSUNNY   72  37  28 SE23      29.81S
KINGMAN        LGT RAIN  53  43  68 SW16      29.87R
6HR MIN TEMP:  52; 6HR MAX TEMP:  62; 6HR PCP:  0.04;

$$

AZZ004>008-015-016-018-061900-
NORTH CENTRAL ARIZONA

CITY           SKY/WX    TMP DP  RH WIND       PRES   REMARKS
GRAND CANYON   MOSUNNY   59  19  21 S16G32    29.93S
6HR MIN TEMP:  33; 6HR MAX TEMP:  59;

WILLIAMS       SUNNY     55  19  24 MISG      30.01R
PRESCOTT       CLOUDY    58  30  34 SE20G28   29.91R
6HR MIN TEMP:  47; 6HR MAX TEMP:  60;

FLAGSTAFF      MOSUNNY   53  28  38 S21G33    29.97R
6HR MIN TEMP:  36; 6HR MAX TEMP:  54;

PAYSON         MOSUNNY   63  34  34 S17G30    29.97R
PAGE           MOSUNNY   71  27  19 S28G36    29.83S
6HR MIN TEMP:  59; 6HR MAX TEMP:  71;

$$

AZZ009>014-017-061900-
NORTHEAST ARIZONA

CITY           SKY/WX    TMP DP  RH WIND       PRES   REMARKS
WINSLOW        MOSUNNY   68  31  25 SE32G41   29.92F
6HR MIN TEMP:  51; 6HR MAX TEMP:  68; 6HR PCP: TRACE;

SAINT JOHNS    MOSUNNY   72  19  13 S25G39    29.92R
6HR MIN TEMP:  44; 6HR MAX TEMP:  73;

WINDOW ROCK    PTSUNNY   67  20  16 S22G37    29.96F
6HR MIN TEMP:  44; 6HR MAX TEMP:  70;

SHOW LOW       PTSUNNY   59  28  31 SW25G36   29.99S
$$

AZZ023-061900-
GREATER PHOENIX AREA

CITY           SKY/WX    TMP DP  RH WIND       PRES   REMARKS
PHOENIX        PTSUNNY   74  44  34 S12G31    29.85S
6HR MIN TEMP:  66; 6HR MAX TEMP:  74;

BUCKEYE        MOSUNNY   72  43  35 S6        29.87S
GLENDALE       MOSUNNY   73  43  33 SE12G17   29.87S
LUKE AFB       MOSUNNY   74  42  31 S8        29.85R
6HR MIN TEMP:  63; 6HR MAX TEMP:  74; 6HR PCP: TRACE;

DEER VALLEY    SUNNY     72  38  29 S9G18     29.86R
6HR MIN TEMP:  62; 6HR MAX TEMP:  73;

SCOTTSDALE     SUNNY     72  38  29 SE10G21   29.88S
6HR MIN TEMP:  64; 6HR MAX TEMP:  72;

MESA-FALCON    MOSUNNY  N/A N/A N/A MISG      29.86S
MESA-GATEWAY   MOSUNNY   72  39  30 MISG      29.89S
CHANDLER       MOSUNNY   72  41  33 SW25      29.88S
$$

AZZ027-028-061900-
SOUTHWEST MARICOPA COUNTY AND PINAL COUNTY

CITY           SKY/WX    TMP DP  RH WIND       PRES   REMARKS
CASA GRANDE    SUNNY     72  37  28 S13G28    29.89S
6HR MIN TEMP:  61; 6HR MAX TEMP:  72;

GILA BEND      PTSUNNY   73  46  37 VRB3      29.85S
6HR MIN TEMP:  61; 6HR MAX TEMP:  74;

$$

AZZ503-504-507>509-061900-
SOUTHEAST ARIZONA

CITY           SKY/WX    TMP DP  RH WIND       PRES   REMARKS
TUCSON         SUNNY     77  33  20 S17G23    29.91F
6HR MIN TEMP:  62; 6HR MAX TEMP:  76;

DAVIS-MONTHAN  SUNNY     74  36  25 S14G24    29.90F
6HR MIN TEMP:  63; 6HR MAX TEMP:  74;

RYAN FIELD     SUNNY     70  34  26 SW18G26   29.91S
NOGALES        SUNNY     71  36  27 S21G28    29.96S
6HR MIN TEMP:  56; 6HR MAX TEMP:  71;

SIERRA VISTA   SUNNY     71  33  24 S23G33    29.97S
6HR MIN TEMP:  57; 6HR MAX TEMP:  72;

DOUGLAS        SUNNY     76  29  17 S28G37    29.95F
6HR MIN TEMP:  60; 6HR MAX TEMP:  78;

SAFFORD        MOSUNNY   80  32  17 S16G26    29.86F
6HR MIN TEMP:  57; 6HR MAX TEMP:  81;

$$

AZZ020-021-025-026-031-061900-
SOUTHWEST ARIZONA

CITY           SKY/WX    TMP DP  RH WIND       PRES   REMARKS
YUMA           PTSUNNY   72  43  35 S5        29.85S
6HR MIN TEMP:  60; 6HR MAX TEMP:  74;

$$

CAZ031-033-041-043-047-048-061-061900-
SOUTHERN CALIFORNIA

CITY           SKY/WX    TMP DP  RH WIND       PRES   REMARKS
DOWNTOWN L.A.  CLOUDY    64  51  62 CALM      29.89R
6HR MIN TEMP:  58; 6HR MAX TEMP:  64; 6HR PCP: TRACE;

L.A. AIRPORT   PTSUNNY   63  52  67 W13       29.90R
6HR MIN TEMP:  58; 6HR MAX TEMP:  64;

SAN DIEGO      CLOUDY    61  54  77 S6        29.95R
6HR MIN TEMP:  59; 6HR MAX TEMP:  61; 6HR PCP:  0.11;

BURBANK        CLOUDY    61  49  64 S9        29.88R
6HR MIN TEMP:  56; 6HR MAX TEMP:  62;

ONTARIO        CLOUDY    61  47  59 SW15      29.89R
6HR MIN TEMP:  54; 6HR MAX TEMP:  63; 6HR PCP: TRACE;

RIVERSIDE      CLOUDY    64  47  53 SW8       29.89R
6HR MIN TEMP:  55; 6HR MAX TEMP:  64;

PALM SPRINGS   MOSUNNY   73  42  32 S7        29.83S
6HR MIN TEMP:  59; 6HR MAX TEMP:  73;

EL CENTRO NAS  MOSUNNY   74  39  28 W23G31    29.86R
                                      6HR PCP: TRACE;

IMPERIAL       PTSUNNY   73  43  33 S5G18     29.83S
6HR MIN TEMP:  62; 6HR MAX TEMP:  75;

BLYTHE         SUNNY     75  42  30 SW16G24   29.82R
6HR MIN TEMP:  60; 6HR MAX TEMP:  76;

NEEDLES        PTSUNNY   73  38  27 S14       29.81R
6HR MIN TEMP:  65; 6HR MAX TEMP:  75;

$$

NVZ020-UTZ003-061900-
SOUTHERN NEVADA-UTAH

CITY           SKY/WX    TMP DP  RH WIND       PRES   REMARKS
LAS VEGAS      PTSUNNY   65  44  46 N10       29.77S
6HR MIN TEMP:  59; 6HR MAX TEMP:  66; 6HR PCP: TRACE;

SALT LAKE CITY LGT RAIN  70  42  36 E23G30    29.79S
6HR MIN TEMP:  62; 6HR MAX TEMP:  73; 6HR PCP: TRACE;

$$

NMZ009-TXZ055-061900-
NEW MEXICO-WEST TEXAS

CITY           SKY/WX    TMP DP  RH WIND       PRES   REMARKS
ALBUQUERQUE    MOSUNNY   80  18  10 S33G40    29.96F
6HR MIN TEMP:  60; 6HR MAX TEMP:  80;

EL PASO        MOSUNNY   87  25  10 S10G17    29.93F
6HR MIN TEMP:  64; 6HR MAX TEMP:  87;

$$


........................KEY........................
SKY/WX - SKY CONDITION/WEATHER
TMP    - TEMPERATURE IN FAHRENHEIT
DP     - DEW POINT IN FAHRENHEIT
RH     - RELATIVE HUMIDITY IN PERCENT
WIND   - DIRECTION AND SPEED IN MILES PER HOUR (MPH)
VRB    - VARIABLE WIND DIRECTION
PRES   - MEAN SEA LEVEL PRESSURE IN INCHES OF MERCURY
         F - FALLING PRESSURE   R - RISING PRESSURE
         S - STEADY PRESSURE
VSB    - VISIBILITY IN MILES
HX     - HEAT INDEX IN FAHRENHEIT
WCI    - WIND CHILL INDEX IN FAHRENHEIT
TC     - TEMPERATURE IN CELSIUS WHICH IS ALSO KNOWN AS
         TEMPERATURE IN CENTIGRADE
AFB    - AIR FORCE BASE
         LUKE AFB IS LUKE AIR FORCE BASE
         DAVIS-MONTHAN IS DAVIS-MONTHAN AIR FORCE BASE
NAS    - NAVAL AIR STATION
         EL CENTRO NAS IS EL CENTRO NAVAL AIR STATION
N/A    - NOT AVAILABLE





USA.gov is the U.S. government's official web portal to all federal, state and local government web resources and services.